Greenville, ME

6:53 PM EDT on March 29, 2017 (GMT -0400)
Greenville

Weather History for KGNR - February, 2013

Change the Weather History Date:

Wednesday, February 6, 2013

  Actual Average (KMLT) Record (KMLT)
Temperature  
Mean Temperature 14 °F -  
Max Temperature 24 °F 22 °F 53 °F (1909)
Min Temperature 1 °F 0 °F -32 °F (1934)
Degree Days  
Heating Degree Days 52    
Moisture  
Dew Point 1 °F    
Average Humidity 64    
Maximum Humidity 81    
Minimum Humidity 46    
Precipitation  
Precipitation 0.00 in - - ()
Sea Level Pressure  
Sea Level Pressure 29.97 in    
Wind  
Wind Speed 5 mph (South)    
Max Wind Speed 12 mph    
Max Gust Speed 24 mph    
Averages and records for this station are not official NWS values.
T = Trace of Precipitation, MM = Missing Value Source: NWS Daily Summary

Daily Weather History Graph

Daily Weather History Graph

Search for Another Location

Airport or City:

Trip Planner

Search our weather history database for the weather conditions in past years. The results will help you decide how hot, cold, wet, or windy it might be!

Date:

Astronomy

Feb. 06, 2013 Rise Set
Actual Time 6:52 AM EST 4:52 PM EST
Civil Twilight 6:21 AM EST 5:23 PM EST
Nautical Twilight 5:46 AM EST 5:59 PM EST
Astronomical Twilight 5:12 AM EST 6:33 PM EST
Moon 3:38 AM EST (2/6) 1:01 PM EST (2/6)
Length of Visible Light 11h 02m
Length of Day
10h 00m
Waning Crescent, 17% of the Moon is Illuminated
Feb 6
Waning Crescent
Feb 10
New
Feb 17
First Quarter
Feb 25
Full
Mar 4
Last Quarter

Hourly Weather History & Observations

Time (EST) Temp. Windchill Dew Point Humidity Pressure Visibility Wind Dir Wind Speed Gust Speed Precip Events Conditions
12:56 AM 3.9 °F -6.9 °F -9.0 °F 55% 29.95 in - ESE 5.8 mph - N/A   Unknown
1:56 AM 5.0 °F -4.1 °F -9.0 °F 52% 29.94 in - SE 4.6 mph - N/A   Unknown
2:56 AM 6.1 °F -0.9 °F -8.0 °F 53% 29.91 in - SE 3.5 mph - N/A   Unknown
3:56 AM 6.1 °F - -7.1 °F 55% 29.92 in - Calm Calm - N/A   Unknown
4:56 AM 6.1 °F -0.9 °F -2.9 °F 67% 29.92 in - SSE 3.5 mph - N/A   Unknown
5:56 AM 6.1 °F -2.8 °F -0.9 °F 73% 29.92 in - SSE 4.6 mph - N/A   Unknown
6:56 AM 8.1 °F 1.4 °F 1.0 °F 73% 29.93 in - SSE 3.5 mph - N/A   Unknown
7:56 AM 8.1 °F - 3.0 °F 80% 29.94 in - Calm Calm - N/A   Unknown
8:56 AM 9.0 °F 2.4 °F 3.9 °F 80% 29.93 in - SSE 3.5 mph - N/A   Unknown
9:56 AM 12.9 °F 5.2 °F 8.1 °F 81% 29.91 in - South 4.6 mph - N/A   Unknown
10:56 AM 18.0 °F 7.7 °F 12.0 °F 78% 29.88 in - South 8.1 mph - N/A   Unknown
11:56 AM 19.9 °F 12.1 °F 12.9 °F 74% 29.86 in - South 5.8 mph - N/A   Unknown
12:56 PM 21.9 °F 15.7 °F 12.9 °F 68% 29.85 in - Variable 4.6 mph - N/A   Unknown
1:56 PM 24.1 °F 19.7 °F 15.1 °F 69% 29.86 in - Variable 3.5 mph - N/A   Unknown
2:56 PM 23.0 °F 15.8 °F 5.0 °F 46% 29.90 in - Variable 5.8 mph 23.0 mph N/A   Unknown
3:56 PM 19.9 °F 13.4 °F 7.0 °F 57% 29.93 in - Variable 4.6 mph - N/A   Unknown
4:56 PM 17.1 °F 7.6 °F 3.9 °F 56% 29.97 in - Variable 6.9 mph - N/A   Unknown
5:56 PM 15.1 °F 7.7 °F 1.0 °F 54% 30.00 in - Variable 4.6 mph - N/A   Unknown
6:56 PM 14.0 °F 6.5 °F 1.0 °F 56% 30.04 in - Variable 4.6 mph - N/A   Unknown
7:56 PM 10.9 °F -0.8 °F 1.9 °F 67% 30.08 in - WNW 8.1 mph - N/A   Unknown
8:56 PM 8.1 °F -3.2 °F -6.0 °F 53% 30.12 in - WNW 6.9 mph 18.4 mph N/A   Unknown
9:56 PM 5.0 °F -10.8 °F -5.1 °F 63% 30.14 in - NW 11.5 mph 20.7 mph N/A   Unknown
10:56 PM 3.0 °F -11.5 °F -8.0 °F 60% 30.16 in - WNW 9.2 mph 24.2 mph N/A   Unknown
11:56 PM 1.0 °F -14.0 °F -9.0 °F 63% 30.19 in - WNW 9.2 mph 17.3 mph N/A   Unknown